Angleton, TX

8:51 PM CDT on June 27, 2017 (GMT -0500)
Brazoria County

Weather History for KLBX - January, 2014

Change the Weather History Date:

Wednesday, January 29, 2014

  Actual Average Record
Temperature  
Mean Temperature 32 °F -  
Max Temperature 42 °F 60 °F 78 °F (2002)
Min Temperature 21 °F 46 °F 21 °F (2014)
Degree Days  
Heating Degree Days 34    
Moisture  
Dew Point 20 °F    
Average Humidity 63    
Maximum Humidity 92    
Minimum Humidity 32    
Precipitation  
Precipitation 0.00 in - - ()
Sea Level Pressure  
Sea Level Pressure 30.41 in    
Wind  
Wind Speed 7 mph (NE)    
Max Wind Speed 14 mph    
Max Gust Speed 20 mph    
Visibility 10 miles    
Events      
Averages and records for this station are not official NWS values.
T = Trace of Precipitation, MM = Missing Value Source: NWS Daily Summary

Daily Weather History Graph

Daily Weather History Graph

Search for Another Location

Airport or City:

Trip Planner

Search our weather history database for the weather conditions in past years. The results will help you decide how hot, cold, wet, or windy it might be!

Date:

Astronomy

Jan. 29, 2014 Rise Set
Actual Time 7:12 AM CST 5:58 PM CST
Civil Twilight 6:47 AM CST 6:23 PM CST
Nautical Twilight 6:18 AM CST 6:51 PM CST
Astronomical Twilight 5:50 AM CST 7:19 PM CST
Moon 5:49 AM CST (1/29) 4:58 PM CST (1/29)
Length of Visible Light 11h 35m
Length of Day
10h 45m
Waning Crescent, 2% of the Moon is Illuminated
Jan 29
Waning Crescent
Jan 30
New
Feb 6
First Quarter
Feb 14
Full
Feb 22
Last Quarter

Hourly Weather History & Observations

Time (CST) Temp. Windchill Dew Point Humidity Pressure Visibility Wind Dir Wind Speed Gust Speed Precip Events Conditions
12:53 AM 33.1 °F 28.7 °F 27.0 °F 78% 30.41 in 10.0 mi North 4.6 mph - N/A   Clear
1:53 AM 33.1 °F 26.1 °F 25.0 °F 72% 30.41 in 10.0 mi NNE 8.1 mph - N/A   Clear
2:53 AM 32.0 °F 27.5 °F 25.0 °F 75% 30.42 in 10.0 mi North 4.6 mph - N/A   Clear
3:53 AM 32.0 °F 26.4 °F 25.0 °F 75% 30.41 in 10.0 mi North 5.8 mph - N/A   Clear
4:53 AM 32.0 °F 24.8 °F 24.1 °F 73% 30.41 in 10.0 mi North 8.1 mph - N/A   Clear
5:53 AM 32.0 °F 24.2 °F 23.0 °F 69% 30.42 in 10.0 mi North 9.2 mph - N/A   Clear
6:53 AM 30.9 °F 24.3 °F 21.9 °F 69% 30.43 in 10.0 mi NNE 6.9 mph - N/A   Clear
7:53 AM 30.9 °F 22.8 °F 21.9 °F 69% 30.47 in 10.0 mi NNE 9.2 mph - N/A   Clear
8:53 AM 32.0 °F 23.0 °F 21.9 °F 66% 30.49 in 10.0 mi NNE 11.5 mph - N/A   Clear
9:53 AM 34.0 °F 25.5 °F 19.9 °F 56% 30.52 in 10.0 mi NE 11.5 mph - N/A   Clear
10:53 AM 36.0 °F 27.5 °F 19.0 °F 50% 30.49 in 10.0 mi ENE 12.7 mph 19.6 mph N/A   Clear
11:53 AM 37.0 °F 31.0 °F 17.1 °F 44% 30.49 in 10.0 mi ENE 8.1 mph - N/A   Clear
12:53 PM 39.0 °F 32.3 °F 17.1 °F 41% 30.44 in 10.0 mi ENE 10.4 mph 19.6 mph N/A   Clear
1:53 PM 41.0 °F 33.5 °F 17.1 °F 38% 30.42 in 10.0 mi NE 13.8 mph 18.4 mph N/A   Clear
2:53 PM 42.1 °F 37.1 °F 18.0 °F 38% 30.40 in 10.0 mi ENE 8.1 mph - N/A   Clear
3:53 PM 42.1 °F 36.1 °F 17.1 °F 37% 30.37 in 10.0 mi East 10.4 mph - N/A   Clear
4:53 PM 41.0 °F 34.7 °F 12.9 °F 32% 30.37 in 10.0 mi East 10.4 mph - N/A   Clear
5:53 PM 37.0 °F 30.4 °F 18.0 °F 46% 30.37 in 10.0 mi ENE 9.2 mph - N/A   Clear
6:53 PM 30.9 °F - 19.9 °F 64% 30.39 in 10.0 mi Calm Calm - N/A   Clear
7:53 PM 28.0 °F - 19.9 °F 72% 30.38 in 10.0 mi Calm Calm - N/A   Clear
8:53 PM 26.1 °F 21.9 °F 19.9 °F 78% 30.36 in 10.0 mi NE 3.5 mph - N/A   Clear
9:53 PM 25.0 °F - 19.9 °F 81% 30.36 in 10.0 mi Calm Calm - N/A   Clear
10:53 PM 21.0 °F - 19.0 °F 92% 30.35 in 10.0 mi Calm Calm - N/A   Clear
11:53 PM 23.0 °F 18.4 °F 19.9 °F 88% 30.32 in 10.0 mi NE 3.5 mph - N/A   Clear